Regional Weather Roundup
Issued by NWS

Home | Current Version | Previous Version | Text Only | Print | Product List | Glossary Off
Versions: 1 2 3 4 5 6 7 8 9 10 11 12 13 14 15 16 17 18 19 20 21 22 23 24 25 26 27 28 29 30 31 32 33 34 35 36 37 38 39 40 41 42 43 44 45 46 47 48 49 50

000
ASUS43 KLMK 231202
RWRKY
KENTUCKY REGIONAL WEATHER ROUNDUP
NATIONAL WEATHER SERVICE LOUISVILLE KY
700 AM EST TUE JAN 23 2018

NOTE "FAIR" INDICATES FEW OR NO CLOUDS BELOW 12,000 FEET
WITH NO SIGNIFICANT WEATHER AND/OR OBSTRUCTIONS TO VISIBILITY.

KYZ001>023-026-027-061>063-070>075-231300-
WESTERN AND SOUTH CENTRAL KENTUCKY

CITY           SKY/WX    TMP DP  RH WIND       PRES   REMARKS
PADUCAH        CLOUDY    39  28  64 W16       29.89R WCI  30
HENDERSON      CLOUDY    39  30  70 W16G24    29.85R WCI  30
OWENSBORO      CLOUDY    41  30  65 W17G26    29.84R
HOPKINSVILLE   CLOUDY    41  27  57 W20G25    29.88R
BOWLING GREEN  CLOUDY    44  29  55 W10G23    29.86R
GLASGOW        NOT AVBL
$$

KYZ024-025-028>034-038-045-046-053-231300-
NORTH CENTRAL KENTUCKY

CITY           SKY/WX    TMP DP  RH WIND       PRES   REMARKS
LOUISVILLE/SDF CLOUDY    43  28  55 W18G26    29.77R
LOUISVILLE/LOU CLOUDY    43  29  57 SW22G33   29.77R
FORT KNOX      CLOUDY    41  28  60 SW15G22   29.77R
$$

KYZ035>037-039>044-047>052-055>060-089>105-231300-
NORTHEAST KENTUCKY

CITY           SKY/WX    TMP DP  RH WIND       PRES   REMARKS
LEXINGTON      CLOUDY    44  28  53 SW16G29   29.77R
COVINGTON      CLOUDY    39  32  76 SW14G22   29.71R WCI  31
FRANKFORT      MOCLDY    43  26  51 W13G29    29.75R
$$

KYZ054-064>069-076>088-106>120-231300-
SOUTHEAST KENTUCKY

CITY           SKY/WX    TMP DP  RH WIND       PRES   REMARKS
JACKSON        MOCLDY    43  31  62 SW8       29.78R
LONDON         MOCLDY    44  29  55 SW15G23   29.81R
SOMERSET       NOT AVBL
MIDDLESBORO    FAIR      45  29  53 SW14G23   29.83R
MONTICELLO     NOT AVBL
$$




USA.gov is the U.S. government's official web portal to all federal, state and local government web resources and services.